Showing default

AO-91, 43017

Orbit data source: Space-Track

AO-91, 43017 is an American payload satellite in SSO that was launched on Sat, 18 Nov 2017 UTC via a DELTA 7920-10C launch vehicle from the Air Force Western Test Range (AFWTR). Payloads include a variety of satellites, spacecraft, and rockets equipped with specific instruments for various scientific and technological missions. These include communications satellites like Starlink; space stations such as the ISS; scientific satellites like the Hubble; Earth observation satellites from companies like Planet Labs, Umbra, and HawkEye 360; GPS; miniature CubeSats for education and research; and military/defense satellites.

Loading next visibility...
AO-91 details
Identifier
43017, 2017-073E
Orbit
SSO
Last TLE update15 hours ago
Origin
Flag of USAMNA/VANDU (US)
ManufacturerVanderbilt U
MissionOperational Amateur Tech/Com
Bus & MotorCUBESAT 1U, Unknown motor
Mass1 kg wet, 1 kg dry
Launch date (UTC)
2017-11-18 (7 years ago)
Launch vehicle
DELTA 7920-10C
Launch site
Air Force Western Test Range (AFWTR)
Object type
Payload
Rocket body
Debris
Shape & HBRBox, 0.1 m
Radar Cross Section0.015 m², Small (<0.1 m²)

Expand to show TLE details & history

TLE from 15 hours ago
0 AO-91
1 43017U 17073E   24356.63798257  .00014577  00000-0  80446-3 0  9999
2 43017  97.5471 225.9435 0191748  24.0891 336.9154 14.99631576383695
Epoch: 2024-12-21T15:18Z
Definitive object data (Epoch: 2024-12-21T15:18:41.694Z)
Latitude-0.00005°
Longitude-94.41649°
Altitude448.943 km
Speed7.71 km/s
True Right ascension15h 03m 46s
True Declination0° 00' 00"
Sunlit
Object was in daylight at TLE epoch
Visualization TLE readout
Latitude79.44917°
Longitude-138.84351°
Altitude513.828 km
Speed7.651 km/s
Apparent Right ascension16h 16m 21s
Apparent Declination26° 37' 39"
Sunlit
Object is in full shadow
Visualization observer readout
Local Sidereal Time05:09:23
Azimuth12.805° NNE
Elevation-22.32°
Doppler factor1
Orbital elements
Apogee altitude698.165 km
Perigee altitude431.897 km
Semi-major axis6,943.168 km
Eccentricity0.0191748
Inclination97.5471°
RAAN225.9435°
Arg. of periapsis24.0891°
True anomaly336.0345°
Mean anomaly336.9154°
Eccentric anomaly336.47691°
Mean motion3.75151 °/min
BSTAR0.00080446
Orbital period95.96 mins
Loading maneuver chart data...
Loading historical data...
Loading historical data...
Loading historical data...
Loading historical data...
Loading historical data...
Loading historical data...
Loading historical data...

AO-91 Visibility forecast

Observer location: undefined°, undefined

Span
Click to sort rows by Start time (UTC) header in descending order
Start Az.
Max El. time (UTC)
Max El. Az.
Max El.
End time (UTC)
End Az.
5 mins2024-12-22 15:27:41.769Z160.107° S2024-12-22 15:30:41.769Z21.643° NNE41.708°2024-12-22 15:32:41.769Z353.413° N
6 mins2024-12-23 04:42:41.769Z352.571° N2024-12-23 04:44:41.769Z295.579° NW39.574°2024-12-23 04:48:41.769Z209.372° SW
|